Hourly Data Report for May 21, 2021

OTTAWA INTL A
ONTARIO
Current Station Operator: NAVCAN

45°19'00.000" N
75°40'00.000" W
114.90 m
6106001
71628
YOW

Download Data

Hourly Data (May 2021)
Hourly Data Report for May 21, 2021
TIME
LST
Temp Definition
°C
Dew Point Definition
°C
Rel Hum Definition
%
Precip. Amount Definition
mm

Wind Dir Definition
10's deg

Wind Spd Definition
km/h
Visibility Definition
km
Stn Press Definition
kPa
Hmdx Definition


Wind Chill Definition


Weather Definition


00:00 20.6 13.0 61   18 8 24.1 101.40     LegendNANA
01:00 19.6 13.0 65   18 6 24.1 101.38     Mainly Clear
02:00 18.9 13.2 69   36 2 24.1 101.39     LegendNANA
03:00 18.1 13.5 74   19 5 24.1 101.38     LegendNANA
04:00 19.1 14.1 72   17 7 24.1 101.40     Mostly Cloudy
05:00 17.3 14.2 82   20 7 24.1 101.44     LegendNANA
06:00 19.3 15.3 77   21 4 24.1 101.49     LegendNANA
07:00 21.4 15.6 69   21 4 24.1 101.51 26   Mostly Cloudy
08:00 23.4 15.7 62   21 7 24.1 101.54 28   LegendNANA
09:00 26.7 13.8 44   23 10 24.1 101.53 30   LegendNANA
10:00 26.7 14.4 46   22 10 24.1 101.53 30   Mostly Cloudy
11:00 29.0 13.4 38   24 11 24.1 101.50 32   LegendNANA
12:00 29.8 14.1 38   26 8 24.1 101.42 33   LegendNANA
13:00 30.6 13.7 35   22 12 24.1 101.36 34   Mostly Cloudy
14:00 32.2 12.1 29   22 17 24.1 101.25 35   LegendNANA
15:00 31.0 12.6 32   24 21 24.1 101.17 34   LegendNANA
16:00 30.2 13.6 36   23 13 24.1 101.15 33   Mostly Cloudy
17:00 31.1 13.8 34   21 16 24.1 101.11 34   LegendNANA
18:00 28.9 13.6 38   20 19 24.1 101.09 32   LegendNANA
19:00 27.6 13.9 42   19 14 24.1 101.06 31   Cloudy
20:00 25.0 14.9 53   18 8 24.1 101.05 29   LegendNANA
21:00 24.3 14.8 55   19 11 24.1 101.02 28   LegendNANA
22:00 24.1 14.0 53   22 12 24.1 100.98 27   Mostly Cloudy
23:00 23.4 13.3 52   23 10 24.1 100.94 26   LegendNANA

Notes on Data Quality.

Legend

  • E = Estimated
  • M = Missing
  • NA = Not Available*
  • [empty] = Indicates an unobserved value
Date modified: